Prairie Du Chien, WI

1:07 AM CDT on April 27, 2017 (GMT -0500)
Prairie Du Chien Municipal

Weather History for KPDC - February, 2013

Change the Weather History Date:

Monday, February 11, 2013

  Actual Average Record
Temperature  
Mean Temperature 28 °F -  
Max Temperature 33 °F 30 °F 56 °F (1977)
Min Temperature 23 °F 11 °F -21 °F (2014)
Degree Days  
Heating Degree Days 37    
Moisture  
Dew Point 23 °F    
Average Humidity 78    
Maximum Humidity 93    
Minimum Humidity 69    
Precipitation  
Precipitation 0.00 in - - ()
Sea Level Pressure  
Sea Level Pressure 29.75 in    
Wind  
Wind Speed 18 mph (West)    
Max Wind Speed 29 mph    
Max Gust Speed 39 mph    
Visibility 8 miles    
Events Snow    
Averages and records for this station are not official NWS values.
T = Trace of Precipitation, MM = Missing Value Source: NWS Daily Summary

Daily Weather History Graph

Daily Weather History Graph

Search for Another Location

Airport or City:

Trip Planner

Search our weather history database for the weather conditions in past years. The results will help you decide how hot, cold, wet, or windy it might be!

Date:

Astronomy

Feb. 11, 2013 Rise Set
Actual Time 7:07 AM CST 5:30 PM CST
Civil Twilight 6:37 AM CST 6:00 PM CST
Nautical Twilight 6:04 AM CST 6:33 PM CST
Astronomical Twilight 5:31 AM CST 7:06 PM CST
Moon 7:28 AM CST (2/11) 7:32 PM CST (2/11)
Length of Visible Light 11h 22m
Length of Day
10h 23m
Waxing Crescent, 3% of the Moon is Illuminated
Feb 11
Waxing Crescent
Feb 17
First Quarter
Feb 25
Full
Mar 4
Last Quarter
Mar 11
New

Hourly Weather History & Observations

Time (CST) Temp. Windchill Dew Point Humidity Pressure Visibility Wind Dir Wind Speed Gust Speed Precip Events Conditions
12:15 AM 33.8 °F 22.5 °F 30.2 °F 87% 29.37 in 5.0 mi SSW 19.6 mph 32.2 mph N/A   Overcast
12:35 AM 33.8 °F 21.6 °F 30.2 °F 87% 29.37 in 4.0 mi SW 23.0 mph 32.2 mph N/A   Overcast
12:55 AM 33.8 °F 23.2 °F 30.2 °F 87% 29.37 in 5.0 mi SW 17.3 mph 29.9 mph N/A   Overcast
1:15 AM 33.8 °F 21.6 °F 28.4 °F 81% 29.38 in 7.0 mi SW 23.0 mph 34.5 mph N/A   Overcast
1:35 AM 32.0 °F 21.6 °F 28.4 °F 87% 29.39 in 4.0 mi SW 15.0 mph 24.2 mph N/A Snow Light Snow
1:55 AM 32.0 °F 22.5 °F 28.4 °F 87% 29.40 in 2.5 mi SW 12.7 mph 23.0 mph N/A Snow Light Snow
2:15 AM 32.0 °F 20.8 °F 28.4 °F 87% 29.42 in 1.5 mi SW 17.3 mph 26.5 mph N/A Snow Light Snow
2:35 AM 32.0 °F 21.2 °F 28.4 °F 87% 29.43 in 1.5 mi SW 16.1 mph 24.2 mph N/A Snow Light Snow
2:55 AM 32.0 °F 22.5 °F 28.4 °F 87% 29.44 in 1.5 mi WSW 12.7 mph 24.2 mph N/A Snow Light Snow
3:15 AM 30.2 °F 18.5 °F 28.4 °F 93% 29.45 in 1.8 mi WSW 17.3 mph 24.2 mph N/A Snow Light Snow
3:35 AM 30.2 °F 18.5 °F 28.4 °F 93% 29.46 in 1.0 mi WSW 17.3 mph 26.5 mph N/A Snow Snow
3:55 AM 30.2 °F 19.3 °F 28.4 °F 93% 29.47 in 1.5 mi WSW 15.0 mph 21.9 mph N/A Snow Light Snow
4:15 AM 32.0 °F 21.2 °F 26.6 °F 80% 29.48 in 2.0 mi WSW 16.1 mph 26.5 mph N/A Snow Light Snow
4:35 AM 32.0 °F 20.1 °F 26.6 °F 80% 29.49 in 7.0 mi WSW 19.6 mph 26.5 mph N/A   Overcast
4:55 AM 32.0 °F 20.5 °F 26.6 °F 80% 29.50 in 7.0 mi WSW 18.4 mph 29.9 mph N/A   Overcast
5:15 AM 32.0 °F 20.1 °F 26.6 °F 80% 29.51 in 7.0 mi WSW 19.6 mph 27.6 mph N/A   Overcast
5:55 AM 30.2 °F 19.3 °F 26.6 °F 86% 29.54 in 3.0 mi West 15.0 mph 19.6 mph N/A   Overcast
6:15 AM 30.2 °F 19.8 °F 26.6 °F 86% 29.55 in 2.5 mi West 13.8 mph 27.6 mph N/A Snow Light Snow
6:35 AM 30.2 °F 19.3 °F 26.6 °F 86% 29.56 in 5.0 mi West 15.0 mph 25.3 mph N/A Snow Light Snow
6:55 AM 30.2 °F 18.9 °F 26.6 °F 86% 29.58 in 7.0 mi West 16.1 mph 26.5 mph N/A   Overcast
7:15 AM 30.2 °F 18.9 °F 26.6 °F 86% 29.60 in 4.0 mi West 16.1 mph 25.3 mph N/A Snow Light Snow
7:35 AM 30.2 °F 17.8 °F 26.6 °F 86% 29.61 in 7.0 mi West 19.6 mph 27.6 mph N/A Snow Light Snow
7:55 AM 30.2 °F 17.8 °F 24.8 °F 80% 29.63 in 5.0 mi West 19.6 mph 29.9 mph N/A   Haze
8:15 AM 30.2 °F 17.8 °F 24.8 °F 80% 29.64 in 7.0 mi West 19.6 mph 32.2 mph N/A   Overcast
8:35 AM 30.2 °F 16.2 °F 24.8 °F 80% 29.66 in 7.0 mi West 25.3 mph 33.4 mph N/A   Overcast
8:55 AM 30.2 °F 16.5 °F 24.8 °F 80% 29.67 in 10.0 mi West 24.2 mph 34.5 mph N/A   Overcast
9:15 AM 30.2 °F 16.8 °F 23.0 °F 75% 29.69 in 7.0 mi West 23.0 mph 33.4 mph N/A   Overcast
9:35 AM 30.2 °F 17.8 °F 23.0 °F 75% 29.71 in 7.0 mi West 19.6 mph 31.1 mph N/A   Overcast
9:55 AM 30.2 °F 16.8 °F 23.0 °F 75% 29.72 in 7.0 mi West 23.0 mph 35.7 mph N/A   Overcast
10:15 AM 30.2 °F 17.1 °F 23.0 °F 75% 29.73 in 10.0 mi West 21.9 mph 29.9 mph N/A   Overcast
10:35 AM 28.4 °F 15.4 °F 21.2 °F 74% 29.74 in 7.0 mi West 19.6 mph 34.5 mph N/A   Overcast
10:55 AM 28.4 °F 14.4 °F 21.2 °F 74% 29.76 in 10.0 mi West 23.0 mph 34.5 mph N/A   Overcast
11:15 AM 28.4 °F 14.1 °F 21.2 °F 74% 29.77 in 10.0 mi West 24.2 mph 32.2 mph N/A   Overcast
11:35 AM 30.2 °F 17.8 °F 21.2 °F 69% 29.79 in 10.0 mi West 19.6 mph 29.9 mph N/A   Overcast
11:55 AM 30.2 °F 16.2 °F 21.2 °F 69% 29.79 in 10.0 mi West 25.3 mph 35.7 mph N/A   Overcast
12:15 PM 28.4 °F 14.4 °F 21.2 °F 74% 29.80 in 5.0 mi West 23.0 mph 39.1 mph N/A   Haze
12:35 PM 28.4 °F 14.7 °F 21.2 °F 74% 29.81 in 10.0 mi West 21.9 mph 36.8 mph N/A   Overcast
12:55 PM 28.4 °F 14.4 °F 21.2 °F 74% 29.82 in 10.0 mi West 23.0 mph 33.4 mph N/A   Overcast
1:15 PM 28.4 °F 15.8 °F 21.2 °F 74% 29.83 in 10.0 mi West 18.4 mph 33.4 mph N/A   Overcast
1:35 PM 28.4 °F 16.6 °F 21.2 °F 74% 29.84 in 10.0 mi West 16.1 mph 24.2 mph N/A   Overcast
1:55 PM 28.4 °F 15.4 °F 21.2 °F 74% 29.85 in 10.0 mi West 19.6 mph 32.2 mph N/A   Overcast
2:15 PM 28.4 °F 14.7 °F 21.2 °F 74% 29.86 in 10.0 mi West 21.9 mph 34.5 mph N/A   Overcast
2:35 PM 28.4 °F 14.4 °F 21.2 °F 74% 29.87 in 10.0 mi West 23.0 mph 31.1 mph N/A   Overcast
2:55 PM 28.4 °F 15.8 °F 19.4 °F 69% 29.88 in 10.0 mi West 18.4 mph 28.8 mph N/A   Overcast
3:15 PM 28.4 °F 13.5 °F 19.4 °F 69% 29.89 in 7.0 mi West 26.5 mph 35.7 mph N/A   Overcast
3:35 PM 28.4 °F 13.0 °F 19.4 °F 69% 29.90 in 10.0 mi West 28.8 mph 34.5 mph N/A   Overcast
3:55 PM 28.4 °F 15.8 °F 19.4 °F 69% 29.91 in 10.0 mi West 18.4 mph 28.8 mph N/A   Overcast
4:55 PM 28.4 °F 17.0 °F 19.4 °F 69% 29.94 in 10.0 mi West 15.0 mph 25.3 mph N/A   Overcast
5:15 PM 28.4 °F 18.0 °F 19.4 °F 69% 29.95 in 10.0 mi West 12.7 mph 26.5 mph N/A   Overcast
5:35 PM 26.6 °F 13.4 °F 19.4 °F 74% 29.95 in 10.0 mi West 18.4 mph 25.3 mph N/A   Overcast
5:55 PM 26.6 °F 13.4 °F 19.4 °F 74% 29.96 in 10.0 mi West 18.4 mph 25.3 mph N/A   Overcast
6:35 PM 26.6 °F 16.8 °F 19.4 °F 74% 29.99 in 10.0 mi West 10.4 mph - N/A   Overcast
6:55 PM 26.6 °F 13.8 °F 19.4 °F 74% 29.99 in 10.0 mi West 17.3 mph 27.6 mph N/A   Overcast
7:15 PM 26.6 °F 14.7 °F 19.4 °F 74% 30.00 in 10.0 mi West 15.0 mph 24.2 mph N/A   Overcast
7:35 PM 26.6 °F 14.3 °F 19.4 °F 74% 30.00 in 10.0 mi West 16.1 mph - N/A   Overcast
7:55 PM 26.6 °F 13.4 °F 19.4 °F 74% 30.01 in 10.0 mi WNW 18.4 mph 26.5 mph N/A   Overcast
8:15 PM 24.8 °F 13.4 °F 19.4 °F 80% 30.02 in 10.0 mi WNW 12.7 mph 24.2 mph N/A   Overcast
8:35 PM 24.8 °F 14.0 °F 17.6 °F 74% 30.02 in 10.0 mi WNW 11.5 mph 19.6 mph N/A   Overcast
8:55 PM 24.8 °F 14.6 °F 17.6 °F 74% 30.03 in 10.0 mi West 10.4 mph 13.8 mph N/A   Overcast
9:15 PM 24.8 °F 14.0 °F 17.6 °F 74% 30.04 in 10.0 mi West 11.5 mph 20.7 mph N/A   Overcast
9:35 PM 24.8 °F 10.0 °F 15.8 °F 69% 30.04 in 10.0 mi WNW 21.9 mph 27.6 mph N/A   Overcast
9:55 PM 24.8 °F 11.1 °F 15.8 °F 69% 30.04 in 10.0 mi West 18.4 mph 23.0 mph N/A   Overcast
10:15 PM 24.8 °F 12.9 °F 15.8 °F 69% 30.04 in 10.0 mi West 13.8 mph 18.4 mph N/A   Overcast
10:35 PM 24.8 °F 11.5 °F 15.8 °F 69% 30.04 in 10.0 mi West 17.3 mph 23.0 mph N/A   Overcast
10:55 PM 23.0 °F 9.6 °F 15.8 °F 74% 30.04 in 10.0 mi West 16.1 mph - N/A   Overcast
11:15 PM 23.0 °F 10.6 °F 15.8 °F 74% 30.04 in 10.0 mi West 13.8 mph - N/A   Overcast
11:35 PM 23.0 °F 13.9 °F 15.8 °F 74% 30.05 in 10.0 mi West 8.1 mph - N/A   Overcast
11:55 PM 23.0 °F 11.7 °F 17.6 °F 80% 30.05 in 10.0 mi West 11.5 mph - N/A   Overcast